Location: Ariel
(45.9570°N, 122.5700°W)
Time: 23:32:17
(UTC-07:00)

Altair - Pass Details

Date: 20 July 2019
Orbit: 1501 x 1683 km, 47.2° (Epoch: 24 August)

Event Time Altitude Azimuth Distance (km) Brightness Sun altitude
Rises 13:44:39 0° 238° (WSW) 4,640 10.3 64.0°
Reaches altitude 10° 13:47:41 10° 236° (WSW) 3,652 9.9 63.8°
Maximum altitude 13:56:46 72° 155° (SSE) 1,567 9.4 63.3°
Drops below altitude 10° 14:05:58 10° 73° (ENE) 3,691 9.4 62.7°
Sets 14:09:03 0° 72° (ENE) 4,693 9.8 62.5°
